sat.trackr.live / text

‹ back to catalog

HULIANWANG DIGUI-113

NORAD 66923 · 2025-285J

PAYLOAD ACTIVE UNKNOWN

§ Identity

Operator
Country
PRC
Launch date
2025-12-06
Launch site
WSC
Launch vehicle
Mass (kg)
RCS (m²)

External: N2YO · Heavens-Above · Gunter

§ Orbital elements

Epoch: 2026-09-20T23:06:51.983424Z

Period
108.33 min
Inclination
50.0089°
Eccentricity
0.0000099
Mean motion
13.29327655 rev/d
Perigee alt
1,149.2 km
Apogee alt
1,149.4 km
Semi-major
7,527.4 km
B*
2.0644e-5
RAAN
162.2419°
Arg perigee
245.2628°
Mean anomaly
114.8233°
Rev number
3,880

§ Raw data

HULIANWANG DIGUI-1131 66923U 25285J   26263.96310166 -.00000114  00000+0  20644-4 0  99952 66923  50.0089 162.2419 0000099 245.2628 114.8233 13.29327655 38806

JSON: /api/v1/satellites/66923 · /tle

For live sub-satellite position, see the globe view (requires WebGL).

§ Visibility from observer

Set your observer location to see the next 7 days of passes ≥ 10°. The values pass through the URL so the page stays shareable.

No JS? Fill the form by hand. The geolocation button needs JavaScript.